QPF
0.00 0.00 0.00 0.00 0.00 0.00 0.00 0.00 0.00 0.00 0.00 0.00 0.00 0.00 0.00 0.00 0.00 0.00 0.00 0.00 0.00 0.00 0.00 0.00 0.00 0.00 0.00 0.00 0.00 0.00 0.00 0.00 0.00 0.00 0.00 0.00 0.00 0.00 0.00 0.00 0.00 0.00 0.00 0.00 0.00
0.00 0.00 0.00 0.00 0.00 0.00 0.00 0.00 0.00 0.00 0.00 0.00 0.00 0.00 0.00 0.00 0.00 0.00 0.00 0.00 0.00 0.00 0.00 0.00 0.00 0.00 0.00 0.00 0.00 0.00 0.00 0.00 0.00 0.00 0.00 0.00 0.00 0.00 0.00 0.00 0.00 0.00 0.00 0.00 0.00
0.00 0.00 0.00 0.00 0.00 0.00 0.00 0.00 0.00 0.00 0.00 0.00 0.00 0.00 0.00 0.00 0.00 0.00 0.00 0.00 0.00 0.00 0.00 0.00 0.00 0.00 0.00 0.00 0.00 0.00 0.00 0.00 0.00 0.00 0.00 0.00 0.00 0.00 0.00 0.00 0.00 0.00 0.00 0.00 0.00
0.00 0.00 0.00 0.00 0.00 0.00 0.00 0.00 0.00 0.00 0.00 0.00 0.00 0.00 0.00 0.00 0.00 0.00 0.00 0.00 0.00 0.00 0.00 0.00 0.00 0.00 0.00 0.00 0.00 0.00 0.00 0.00 0.00 0.00 0.00 0.00 0.00 0.00 0.00 0.00 0.00 0.00 0.00 0.00 0.00
0.00 0.00 0.00 0.00 0.00 0.00 0.00 0.00 0.00 0.00 0.00 0.00 0.00 0.00 0.00 0.00 0.00 0.00 0.00 0.00 0.00 0.00 0.00 0.00 0.00 0.00 0.00 0.00 0.00 0.00 0.00 0.00 0.00 0.00 0.00 0.00 0.00 0.00 0.00 0.00 0.00 0.00 0.00 0.00 0.00
0.00 0.00 0.00 0.00 0.00 0.00 0.00 0.00 0.00 0.00 0.00 0.00 0.00 0.00 0.00 0.00 0.00 0.00 0.00 0.00 0.00 0.00 0.00 0.00 0.00 0.00 0.00 0.00 0.00 0.00 0.00 0.00 0.00 0.00 0.00 0.00 0.00 0.00 0.00 0.00 0.00 0.00 0.00 0.00 0.00
0.00 0.00 0.00 0.00 0.00 0.00 0.00 0.00 0.00 0.00 0.00 0.00 0.00 0.00 0.00 0.00 0.00 0.00 0.00 0.00 0.00 0.00 0.00 0.00 0.00 0.00 0.00 0.00 0.00 0.00 0.00 0.00 0.00 0.00 0.00 0.00 0.00 0.00 0.00 0.00 0.00 0.00 0.00 0.00 0.00
0.00 0.00 0.00 0.00 0.00 0.00 0.00 0.00 0.00 0.00 0.00 0.00 0.00 0.00 0.00 0.00 0.00 0.00 0.00 0.00 0.00 0.00 0.00 0.00 0.00 0.00 0.00 0.00 0.00 0.00 0.00 0.00 0.00 0.00 0.00 0.00 0.00 0.00 0.00 0.00 0.00 0.00 0.00 0.00 0.00
0.00 0.00 0.00 0.00 0.00 0.00 0.00 0.00 0.00 0.00 0.00 0.00 0.00 0.00 0.00 0.00 0.00 0.00 0.00 0.00 0.00 0.00 0.00 0.00 0.00 0.00 0.00 0.00 0.00 0.00 0.00 0.00 0.00 0.00 0.00 0.00 0.00 0.00 0.00 0.00 0.00 0.00 0.00 0.00 0.00
0.00 0.00 0.00 0.00 0.00 0.00 0.00 0.00 0.00 0.00 0.00 0.00 0.00 0.00 0.00 0.00 0.00 0.00 0.00 0.00 0.00 0.00 0.00 0.00 0.00 0.00 0.00 0.00 0.00 0.00 0.00 0.00 0.00 0.00 0.00 0.00 0.00 0.00 0.00 0.00 0.00 0.00 0.00 0.00 0.00
0.00 0.00 0.00 0.00 0.00 0.00 0.00 0.00 0.00 0.00 0.00 0.00 0.00 0.00 0.00 0.00 0.00 0.00 0.00 0.00 0.00 0.00 0.00 0.00 0.00 0.00 0.00 0.00 0.00 0.00 0.00 0.00 0.00 0.00 0.00 0.00 0.00 0.00 0.00 0.00 0.00 0.00 0.00 0.00 0.00
0.00 0.00 0.00 0.00 0.00 0.00 0.00 0.00 0.00 0.00 0.00 0.00 0.00 0.00 0.00 0.00 0.00 0.00 0.00 0.00 0.00 0.00 0.00 0.00 0.00 0.00 0.00 0.00 0.00 0.00 0.00 0.00 0.00 0.00 0.00 0.00 0.00 0.00 0.00 0.00 0.00 0.00 0.00 0.00 0.00
0.00 0.00 0.00 0.00 0.00 0.00 0.00 0.00 0.00 0.00 0.00 0.00 0.00 0.00 0.00 0.00 0.00 0.00 0.00 0.00 0.00 0.00 0.00 0.00 0.00 0.00 0.00 0.00 0.00 0.00 0.00 0.00 0.00 0.00 0.00 0.00 0.00 0.00 0.00 0.00 0.00 0.00 0.00 0.00 0.00
0.00 0.00 0.00 0.00 0.00 0.00 0.00 0.00 0.00 0.00 0.00 0.00 0.00 0.00 0.00 0.00 0.00 0.00 0.00 0.00 0.00 0.00 0.00 0.00 0.00 0.00 0.00 0.00 0.00 0.00 0.00 0.00 0.00 0.00 0.00 0.00 0.00 0.00 0.00 0.00 0.00 0.00 0.00 0.00 0.00
0.00 0.00 0.00 0.00 0.00 0.00 0.00 0.00 0.00 0.00 0.00 0.00 0.00 0.00 0.00 0.00 0.00 0.00 0.00 0.00 0.00 0.00 0.00 0.00 0.00 0.00 0.00 0.00 0.00 0.00 0.00 0.00 0.00 0.00 0.00 0.00 0.00 0.00 0.00 0.00 0.00 0.00 0.00 0.00 0.00
0.00 0.00 0.00 0.00 0.00 0.00 0.00 0.00 0.00 0.00 0.00 0.00 0.00 0.00 0.00 0.00 0.00 0.00 0.00 0.00 0.00 0.00 0.00 0.00 0.00 0.00 0.00 0.00 0.00 0.00 0.00 0.00 0.00 0.00 0.00 0.00 0.00 0.00 0.00 0.00 0.00 0.00 0.00 0.00 0.00
0.00 0.00 0.00 0.00 0.00 0.00 0.00 0.00 0.00 0.00 0.00 0.00 0.00 0.00 0.00 0.00 0.00 0.00 0.00 0.00 0.00 0.00 0.00 0.00 0.00 0.00 0.00 0.00 0.00 0.00 0.00 0.00 0.00 0.00 0.00 0.00 0.00 0.00 0.00 0.00 0.00 0.00 0.00 0.00 0.00
0.00 0.00 0.00 0.00 0.00 0.00 0.00 0.00 0.00 0.00 0.00 0.00 0.00 0.00 0.00 0.00 0.00 0.00 0.00 0.00 0.00 0.00 0.00 0.00 0.00 0.00 0.00 0.00 0.00 0.00 0.00 0.00 0.00 0.00 0.00 0.00 0.00 0.00 0.00 0.00 0.00 0.00 0.00 0.00 0.00
0.00 0.00 0.00 0.00 0.00 0.00 0.00 0.00 0.00 0.00 0.00 0.00 0.00 0.00 0.00 0.00 0.00 0.00 0.00 0.00 0.00 0.00 0.00 0.00 0.00 0.00 0.00 0.00 0.00 0.00 0.00 0.00 0.00 0.00 0.00 0.00 0.00 0.00 0.00 0.00 0.00 0.00 0.00 0.00 0.00
0.00 0.00 0.00 0.00 0.00 0.00 0.00 0.00 0.00 0.00 0.00 0.00 0.00 0.00 0.00 0.00 0.00 0.00 0.00 0.00 0.00 0.00 0.00 0.00 0.00 0.00 0.00 0.00 0.00 0.00 0.00 0.00 0.00 0.00 0.00 0.00 0.00 0.00 0.00 0.00 0.00 0.00 0.00 0.00 0.00
0.00 0.00 0.00 0.00 0.00 0.00 0.00 0.00 0.00 0.00 0.00 0.00 0.00 0.00 0.00 0.00 0.00 0.00 0.00 0.00 0.00 0.00 0.00 0.00 0.00 0.00 0.00 0.00 0.00 0.00 0.00 0.00 0.00 0.00 0.00 0.00 0.00 0.00 0.00 0.00 0.00 0.00 0.00 0.00 0.00
0.00 0.00 0.00 0.00 0.00 0.00 0.00 0.00 0.00 0.00 0.00 0.00 0.00 0.00 0.00 0.00 0.00 0.00 0.00 0.00 0.00 0.00 0.00 0.00 0.00 0.00 0.00 0.00 0.00 0.00 0.00 0.00 0.00 0.00 0.00 0.00 0.00 0.00 0.00 0.00 0.00 0.00 0.00 0.00 0.00
0.00 0.00 0.00 0.00 0.00 0.00 0.00 0.00 0.00 0.00 0.00 0.00 0.00 0.00 0.00 0.00 0.00 0.00 0.00 0.00 0.00 0.00 0.00 0.00 0.00 0.00 0.00 0.00 0.00 0.00 0.00 0.00 0.00 0.00 0.00 0.00 0.00 0.00 0.00 0.00 0.00 0.00 0.00 0.00 0.00
0.00 0.00 0.00 0.00 0.00 0.00 0.00 0.00 0.00 0.00 0.00 0.00 0.00 0.00 0.00 0.00 0.00 0.00 0.00 0.00 0.00 0.00 0.00 0.00 0.00 0.00 0.00 0.00 0.00 0.00 0.00 0.00 0.00 0.00 0.00 0.00 0.00 0.00 0.00 0.00 0.00 0.00 0.00 0.00 0.00
0.00 0.00 0.00 0.00 0.00 0.00 0.00 0.00 0.00 0.00 0.00 0.00 0.00 0.00 0.00 0.00 0.00 0.00 0.00 0.00 0.00 0.00 0.00 0.00 0.00 0.00 0.00 0.00 0.00 0.00 0.00 0.00 0.00 0.00 0.00 0.00 0.00 0.00 0.00 0.00 0.00 0.00 0.00 0.00 0.00
0.00 0.00 0.00 0.00 0.00 0.00 0.00 0.00 0.00 0.00 0.00 0.00 0.00 0.00 0.00 0.00 0.00 0.00 0.00 0.00 0.00 0.00 0.00 0.00 0.00 0.00 0.00 0.00 0.00 0.00 0.00 0.00 0.00 0.00 0.00 0.00 0.00 0.00 0.00 0.00 0.00 0.00 0.00 0.00 0.00
0.00 0.00 0.00 0.00 0.00 0.00 0.00 0.00 0.00 0.00 0.00 0.00 0.00 0.00 0.00 0.00 0.00 0.00 0.00 0.00 0.00 0.00 0.00 0.00 0.00 0.00 0.00 0.00 0.00 0.00 0.00 0.00 0.00 0.00 0.00 0.00 0.00 0.00 0.00 0.00 0.00 0.00 0.00 0.00 0.00
MSLP
1019.10 1019.04 1019.16 1019.20 1019.24 1019.36 1019.22 1019.17 1019.43 1018.94 1018.96 1018.99 1018.86 1018.65 1018.47 1018.28 1017.89 1017.00 1015.78 1015.01 1014.96 1015.34 1015.53 1015.41 1015.25 1015.27 1015.21 1015.40 1015.75 1015.64 1014.66 1014.11 1014.25 1014.45 1014.18 1014.62 1014.41 1014.43 1014.47 1014.11 1014.07 1014.14 1014.26 1015.03 1016.01
1018.91 1019.04 1019.00 1019.22 1019.38 1019.24 1019.21 1019.04 1019.25 1018.71 1018.76 1018.82 1018.76 1018.55 1018.43 1018.31 1017.46 1015.77 1014.86 1015.02 1015.12 1015.29 1015.13 1014.88 1014.86 1015.04 1014.88 1015.33 1015.60 1015.19 1014.87 1014.53 1014.78 1014.63 1014.63 1014.92 1015.07 1014.85 1014.66 1013.92 1013.89 1014.07 1014.35 1015.35 1015.96
1018.65 1018.76 1018.78 1018.84 1018.85 1019.01 1019.02 1018.84 1018.69 1018.59 1018.59 1018.62 1018.66 1018.45 1018.33 1018.17 1016.90 1014.42 1014.64 1015.00 1015.12 1015.22 1014.99 1014.93 1014.98 1014.98 1014.97 1015.34 1015.47 1015.53 1014.87 1015.13 1015.13 1015.20 1015.40 1015.27 1015.33 1015.35 1014.79 1014.06 1014.40 1014.60 1014.54 1014.92 1015.46
1018.30 1018.45 1018.48 1018.51 1018.72 1018.88 1018.84 1018.65 1018.54 1018.61 1018.42 1018.41 1018.55 1018.45 1018.15 1017.69 1015.85 1014.51 1014.71 1014.93 1015.14 1014.99 1014.85 1014.82 1014.78 1014.84 1015.04 1015.22 1015.64 1015.41 1015.26 1015.54 1015.55 1015.69 1015.71 1015.58 1015.55 1015.30 1015.12 1014.53 1015.20 1015.26 1015.40 1015.24 1015.06
1017.82 1018.03 1018.30 1018.41 1018.51 1018.53 1018.65 1018.65 1018.39 1018.35 1018.25 1018.37 1018.47 1018.44 1017.66 1016.69 1014.88 1014.70 1014.91 1015.08 1015.06 1014.99 1014.64 1014.63 1014.62 1014.93 1015.02 1015.41 1015.79 1015.59 1015.43 1015.71 1015.81 1015.93 1015.84 1015.77 1015.61 1015.46 1015.14 1015.42 1015.51 1015.63 1015.60 1015.40 1015.34
1017.44 1017.77 1018.13 1018.18 1018.39 1018.37 1018.33 1018.16 1018.17 1018.13 1018.22 1018.25 1018.48 1018.41 1017.54 1015.90 1014.68 1014.74 1014.98 1015.18 1014.81 1014.76 1014.77 1014.77 1014.75 1015.09 1015.21 1015.55 1015.84 1015.84 1015.81 1015.58 1015.71 1015.64 1015.78 1015.82 1015.79 1015.90 1015.41 1015.69 1015.64 1015.54 1015.58 1015.57 1015.61
1017.04 1017.31 1017.75 1017.99 1018.14 1017.79 1017.88 1017.94 1018.10 1017.98 1018.14 1018.30 1018.49 1018.23 1016.91 1014.98 1014.71 1014.88 1015.11 1015.00 1015.02 1014.75 1014.76 1015.11 1015.16 1015.23 1015.44 1015.63 1016.12 1016.10 1015.68 1015.25 1015.46 1015.57 1015.60 1015.79 1015.48 1015.27 1015.60 1015.70 1015.50 1015.45 1015.60 1015.81 1015.84
1016.74 1016.91 1017.22 1017.59 1018.01 1017.83 1017.90 1018.13 1017.94 1018.15 1018.13 1018.28 1018.31 1017.86 1015.88 1014.92 1014.93 1015.14 1015.03 1015.07 1015.18 1015.16 1015.12 1015.48 1015.51 1015.63 1015.67 1016.07 1015.97 1015.78 1015.73 1014.77 1015.15 1015.52 1015.81 1015.86 1014.49 1014.94 1015.52 1015.48 1015.61 1015.69 1015.82 1016.00 1015.96
1016.45 1016.68 1016.94 1017.49 1017.61 1017.39 1017.40 1017.66 1017.81 1018.23 1018.08 1018.13 1018.05 1017.38 1015.28 1015.16 1015.03 1014.59 1014.74 1014.69 1015.16 1015.45 1015.64 1015.76 1015.71 1015.87 1016.07 1015.49 1015.29 1015.42 1014.84 1014.92 1015.01 1015.57 1015.54 1015.34 1014.45 1014.79 1015.57 1015.66 1015.67 1015.94 1016.17 1016.32 1016.17
1016.10 1016.38 1016.79 1017.34 1017.49 1017.18 1017.40 1017.99 1017.95 1018.31 1018.01 1018.08 1017.56 1017.14 1015.18 1014.35 1014.42 1014.68 1014.91 1014.89 1014.95 1015.33 1015.61 1015.73 1015.77 1015.65 1015.66 1015.24 1014.45 1014.71 1014.97 1015.24 1015.14 1015.49 1015.56 1015.17 1014.70 1014.70 1015.29 1015.58 1015.60 1016.11 1016.51 1016.65 1016.67
1015.69 1016.13 1016.57 1017.02 1017.02 1016.90 1017.44 1018.07 1018.58 1018.34 1017.52 1015.96 1015.16 1014.78 1014.22 1014.37 1014.47 1014.54 1014.66 1014.87 1014.93 1015.06 1015.08 1015.82 1015.53 1014.87 1014.69 1014.95 1015.34 1015.47 1015.42 1015.31 1015.27 1015.96 1015.99 1015.33 1015.10 1015.07 1015.52 1015.39 1015.64 1016.24 1016.59 1017.01 1017.21
1015.34 1015.89 1016.23 1016.54 1016.95 1017.17 1017.65 1017.28 1015.99 1015.82 1015.83 1015.07 1014.94 1014.77 1014.45 1014.17 1014.24 1014.58 1014.74 1014.54 1014.68 1014.63 1015.40 1015.90 1015.07 1014.85 1015.52 1015.74 1015.82 1015.80 1015.60 1015.47 1015.64 1016.02 1016.14 1015.42 1015.12 1015.45 1015.57 1015.71 1015.81 1016.33 1016.76 1017.09 1017.41
1015.07 1015.55 1015.96 1016.50 1017.21 1017.64 1016.98 1016.19 1015.67 1015.53 1014.91 1014.31 1014.12 1013.90 1013.93 1014.09 1013.92 1014.02 1014.45 1014.36 1014.37 1014.81 1014.99 1014.96 1015.25 1015.65 1015.82 1016.05 1016.04 1015.58 1015.56 1015.60 1016.06 1016.01 1016.00 1015.69 1014.94 1015.23 1015.81 1016.12 1016.56 1016.93 1017.26 1017.35 1017.46
1014.89 1015.43 1016.09 1016.59 1017.78 1016.59 1016.26 1015.48 1015.75 1015.58 1014.68 1013.87 1013.88 1013.35 1013.67 1013.79 1014.10 1014.24 1014.15 1014.16 1014.61 1014.54 1015.21 1015.30 1015.74 1015.91 1016.01 1015.87 1016.27 1015.62 1015.50 1016.15 1016.31 1015.90 1015.12 1015.45 1013.95 1014.61 1015.06 1015.68 1016.20 1016.65 1016.95 1017.41 1017.89
1014.59 1015.22 1015.75 1015.73 1015.68 1015.59 1014.73 1014.76 1015.30 1015.60 1014.46 1013.54 1013.60 1013.55 1013.38 1013.40 1013.99 1014.51 1014.67 1014.34 1014.26 1014.70 1015.33 1015.00 1015.57 1015.90 1015.82 1015.64 1016.16 1016.07 1015.99 1016.41 1016.59 1015.83 1015.46 1014.84 1014.38 1013.19 1014.36 1014.74 1015.27 1016.02 1016.59 1017.31 1017.79
1014.17 1015.09 1015.64 1016.20 1015.75 1014.79 1014.64 1014.65 1014.99 1015.06 1013.51 1013.32 1013.27 1013.31 1013.36 1013.78 1014.23 1014.57 1014.47 1014.62 1014.92 1014.89 1015.19 1015.03 1015.89 1015.67 1015.64 1016.07 1016.41 1016.42 1016.46 1016.64 1016.50 1015.86 1014.84 1014.13 1014.17 1012.89 1013.38 1013.52 1014.41 1015.49 1016.28 1017.02 1017.72
1014.08 1014.78 1015.47 1014.99 1014.62 1014.48 1014.43 1014.44 1014.47 1013.72 1013.25 1013.34 1013.36 1013.41 1013.29 1013.79 1014.22 1014.13 1014.11 1014.35 1014.36 1014.67 1014.57 1014.97 1015.38 1015.74 1015.94 1016.00 1016.36 1016.19 1016.10 1015.33 1015.22 1014.98 1013.92 1014.71 1014.24 1012.08 1013.06 1013.74 1013.85 1014.83 1015.72 1016.58 1017.48
1014.13 1014.59 1014.88 1014.63 1014.58 1014.39 1014.02 1013.85 1013.23 1012.49 1012.75 1013.10 1013.29 1013.45 1013.31 1013.78 1013.97 1014.08 1013.99 1013.91 1014.37 1014.15 1013.96 1014.34 1015.20 1015.44 1015.74 1015.36 1015.26 1015.75 1015.71 1014.77 1014.26 1014.14 1014.02 1014.70 1013.37 1012.65 1013.74 1014.31 1014.90 1014.71 1015.55 1016.47 1017.27
1014.21 1014.69 1014.77 1014.20 1014.44 1014.27 1013.37 1013.21 1011.98 1012.20 1012.37 1012.74 1013.20 1013.21 1013.44 1013.77 1013.73 1013.84 1013.84 1013.43 1013.31 1013.73 1013.37 1013.78 1014.67 1015.71 1015.91 1015.69 1015.90 1016.14 1016.13 1015.71 1014.92 1015.30 1014.52 1013.27 1013.04 1013.14 1013.81 1014.37 1014.96 1015.36 1015.96 1016.57 1017.14
1013.12 1014.13 1013.97 1014.05 1014.31 1013.87 1013.29 1012.18 1012.29 1012.47 1012.58 1012.65 1012.42 1012.82 1012.75 1013.26 1013.61 1013.58 1013.46 1013.01 1013.19 1013.35 1013.44 1013.41 1014.18 1015.62 1016.18 1016.12 1016.29 1016.04 1016.19 1015.88 1015.10 1014.16 1013.42 1012.79 1012.64 1012.02 1012.96 1013.67 1014.48 1015.23 1015.67 1016.43 1017.39
1012.70 1013.38 1013.75 1013.91 1013.85 1013.56 1012.48 1012.28 1012.66 1012.70 1012.78 1012.52 1012.32 1012.55 1012.60 1012.91 1013.08 1013.17 1013.08 1013.30 1013.26 1013.85 1013.77 1013.68 1013.62 1015.68 1016.14 1015.54 1015.29 1016.30 1015.87 1015.74 1015.25 1014.58 1013.37 1012.66 1011.63 1011.84 1011.89 1012.62 1013.46 1014.49 1015.40 1016.37 1017.22
1012.16 1012.89 1013.88 1013.93 1013.86 1013.15 1012.73 1012.83 1012.69 1012.73 1012.78 1012.54 1012.38 1012.37 1012.45 1012.77 1012.85 1013.04 1012.92 1013.24 1013.35 1013.49 1013.69 1013.69 1013.56 1014.14 1014.93 1015.69 1015.87 1015.55 1015.08 1015.03 1014.42 1014.29 1014.19 1013.57 1011.98 1012.23 1012.23 1012.50 1013.04 1014.04 1015.43 1016.48 1017.17
1011.68 1012.85 1013.97 1013.43 1012.63 1012.57 1013.08 1012.79 1012.75 1012.77 1012.55 1012.51 1012.33 1012.26 1012.52 1012.46 1012.74 1012.82 1013.07 1013.50 1013.56 1013.62 1013.55 1013.82 1013.84 1013.71 1014.73 1015.76 1015.99 1015.55 1015.29 1015.06 1014.94 1014.38 1013.33 1013.08 1011.58 1012.52 1012.98 1013.13 1013.65 1014.21 1015.22 1016.25 1017.22
1011.14 1012.17 1013.31 1013.22 1012.67 1011.95 1012.37 1012.52 1012.72 1012.58 1012.44 1012.35 1012.27 1012.27 1012.37 1012.39 1012.64 1012.71 1013.08 1013.60 1013.81 1013.98 1014.06 1013.91 1013.78 1013.14 1013.24 1013.80 1014.18 1014.78 1014.91 1014.92 1014.46 1013.78 1012.87 1012.14 1011.49 1011.99 1012.83 1012.90 1013.44 1014.25 1015.33 1016.34 1017.20
1010.12 1010.32 1010.47 1011.62 1012.07 1011.89 1011.91 1012.05 1012.15 1012.33 1012.45 1012.31 1012.46 1012.17 1012.04 1012.28 1012.46 1012.48 1013.00 1013.65 1014.10 1014.40 1014.42 1014.25 1013.75 1013.76 1013.77 1014.17 1014.36 1014.28 1014.39 1014.39 1014.05 1013.17 1012.70 1011.31 1011.29 1011.26 1012.10 1012.77 1013.09 1014.08 1015.26 1016.33 1017.21
1009.49 1009.62 1010.54 1010.78 1011.36 1011.76 1011.59 1011.55 1011.49 1011.82 1011.97 1012.06 1012.15 1011.84 1011.92 1011.84 1011.78 1012.08 1012.71 1013.31 1013.50 1014.63 1014.56 1014.81 1014.30 1014.30 1014.12 1014.50 1014.62 1014.39 1014.16 1013.72 1013.41 1012.88 1012.28 1011.99 1011.43 1011.45 1012.15 1012.91 1013.24 1014.49 1015.62 1016.57 1017.47
1009.57 1009.43 1009.01 1010.46 1010.77 1011.10 1010.61 1010.86 1011.20 1011.50 1011.67 1011.69 1011.79 1012.02 1012.27 1012.07 1011.94 1012.50 1012.90 1013.11 1013.35 1013.75 1014.40 1014.82 1014.70 1014.60 1014.03 1014.77 1014.73 1013.95 1012.61 1012.42 1012.24 1012.27 1012.02 1011.70 1011.04 1011.83 1012.67 1013.35 1013.78 1014.59 1015.74 1016.70 1017.71
Thickness
5656 5658 5660 5661 5666 5671 5676 5682 5686 5693 5697 5700 5703 5707 5710 5713 5718 5725 5727 5741 5742 5741 5740 5740 5740 5739 5740 5731 5728 5727 5715 5712 5712 5709 5719 5726 5722 5729 5732 5727 5730 5732 5729 5728 5721
5652 5652 5655 5655 5658 5665 5670 5677 5680 5689 5693 5695 5698 5703 5705 5709 5717 5725 5739 5738 5739 5739 5738 5735 5731 5733 5730 5725 5723 5720 5710 5713 5721 5724 5720 5721 5716 5720 5719 5728 5727 5728 5733 5726 5720
5647 5648 5650 5653 5656 5659 5664 5671 5677 5682 5686 5690 5693 5697 5700 5704 5712 5730 5738 5736 5736 5736 5737 5736 5732 5728 5720 5721 5718 5713 5711 5716 5717 5720 5718 5716 5712 5717 5718 5720 5720 5717 5726 5727 5722
5643 5644 5646 5649 5651 5653 5657 5665 5671 5675 5680 5685 5687 5690 5696 5702 5696 5730 5733 5733 5732 5734 5733 5729 5726 5718 5712 5709 5713 5706 5715 5711 5713 5713 5712 5710 5713 5712 5714 5722 5719 5718 5718 5721 5722
5641 5641 5641 5643 5647 5650 5652 5657 5665 5670 5674 5677 5681 5684 5694 5696 5709 5724 5725 5727 5728 5729 5726 5723 5719 5713 5706 5708 5705 5703 5709 5707 5709 5708 5709 5711 5706 5707 5711 5714 5715 5713 5712 5714 5716
5637 5636 5636 5638 5641 5644 5648 5654 5659 5663 5666 5670 5673 5679 5687 5685 5715 5717 5718 5719 5724 5724 5720 5721 5716 5716 5709 5705 5699 5702 5701 5705 5705 5705 5704 5700 5700 5699 5708 5708 5707 5710 5709 5709 5708
5634 5635 5632 5633 5635 5643 5646 5649 5652 5655 5658 5661 5665 5672 5680 5693 5710 5711 5712 5714 5717 5719 5713 5716 5716 5709 5707 5699 5700 5696 5692 5702 5700 5700 5699 5697 5693 5696 5701 5702 5702 5704 5704 5702 5702
5631 5633 5632 5631 5629 5635 5638 5640 5646 5647 5648 5652 5658 5665 5675 5699 5702 5703 5707 5706 5710 5713 5713 5711 5712 5703 5701 5698 5695 5690 5687 5690 5696 5694 5692 5689 5694 5698 5696 5698 5694 5696 5697 5696 5697
5627 5629 5630 5625 5629 5631 5634 5637 5640 5639 5644 5647 5652 5658 5670 5691 5691 5701 5703 5699 5701 5702 5703 5704 5702 5692 5691 5691 5687 5685 5684 5682 5688 5689 5687 5687 5689 5696 5689 5688 5688 5688 5688 5688 5691
5624 5626 5624 5622 5624 5626 5628 5626 5631 5631 5637 5639 5649 5648 5672 5681 5689 5692 5696 5697 5693 5692 5689 5689 5688 5684 5684 5686 5679 5681 5677 5675 5676 5683 5681 5679 5682 5691 5685 5683 5686 5682 5680 5680 5681
5622 5623 5621 5620 5623 5626 5622 5621 5619 5622 5633 5648 5659 5663 5671 5679 5686 5684 5690 5686 5688 5685 5677 5676 5676 5676 5690 5688 5682 5676 5671 5671 5679 5672 5666 5674 5674 5678 5674 5682 5680 5677 5676 5673 5672
5618 5619 5619 5617 5618 5620 5615 5616 5631 5638 5633 5652 5656 5660 5668 5676 5669 5674 5684 5676 5675 5671 5670 5667 5670 5685 5676 5673 5669 5667 5665 5669 5673 5665 5662 5669 5671 5669 5673 5675 5677 5673 5671 5669 5668
5614 5615 5617 5613 5611 5611 5618 5624 5629 5635 5637 5647 5656 5659 5663 5668 5666 5669 5675 5674 5671 5663 5666 5668 5671 5668 5667 5662 5661 5668 5665 5667 5660 5662 5659 5659 5666 5665 5666 5666 5663 5662 5662 5664 5665
5608 5609 5609 5607 5602 5614 5617 5627 5626 5630 5626 5641 5645 5656 5659 5665 5655 5668 5675 5674 5664 5663 5659 5663 5663 5660 5659 5661 5661 5660 5669 5657 5652 5655 5664 5658 5672 5664 5668 5664 5662 5659 5661 5658 5655
5602 5603 5606 5611 5615 5617 5628 5628 5625 5625 5605 5636 5639 5658 5657 5656 5657 5652 5663 5665 5660 5656 5656 5663 5655 5652 5654 5662 5659 5659 5658 5652 5646 5652 5652 5656 5659 5679 5669 5661 5662 5661 5658 5653 5651
5599 5598 5599 5601 5608 5619 5624 5627 5623 5607 5605 5629 5639 5641 5644 5647 5645 5648 5654 5660 5658 5652 5651 5660 5654 5659 5662 5655 5652 5651 5649 5642 5641 5647 5649 5660 5655 5673 5664 5672 5668 5661 5655 5649 5644
5590 5593 5593 5601 5610 5616 5621 5620 5603 5603 5628 5625 5628 5634 5641 5637 5636 5644 5646 5646 5647 5638 5644 5649 5651 5651 5653 5651 5647 5649 5647 5649 5646 5644 5658 5641 5644 5682 5676 5669 5673 5660 5655 5648 5640
5581 5586 5590 5595 5603 5611 5617 5611 5599 5624 5624 5629 5627 5630 5632 5634 5636 5637 5641 5643 5645 5648 5643 5641 5639 5646 5648 5655 5656 5648 5649 5652 5637 5648 5650 5633 5652 5673 5663 5659 5655 5662 5654 5644 5635
5573 5577 5583 5593 5596 5604 5610 5597 5619 5622 5629 5626 5625 5623 5627 5629 5635 5635 5638 5644 5653 5650 5647 5644 5641 5638 5640 5646 5647 5639 5634 5640 5636 5621 5631 5655 5658 5662 5653 5648 5645 5644 5640 5635 5630
5574 5575 5582 5586 5589 5598 5600 5607 5615 5617 5621 5624 5629 5630 5627 5628 5629 5633 5635 5649 5646 5650 5653 5651 5639 5632 5630 5637 5635 5638 5637 5632 5636 5629 5630 5646 5644 5665 5651 5645 5641 5637 5636 5630 5621
5568 5571 5576 5579 5586 5590 5593 5607 5608 5612 5618 5621 5626 5621 5628 5626 5633 5632 5637 5641 5644 5636 5644 5646 5648 5624 5627 5633 5641 5627 5632 5627 5631 5631 5635 5635 5656 5666 5663 5654 5645 5642 5634 5623 5615
5564 5568 5563 5570 5575 5586 5590 5600 5603 5608 5609 5616 5621 5623 5627 5625 5626 5630 5638 5636 5642 5642 5637 5644 5645 5634 5636 5625 5627 5631 5639 5638 5634 5626 5620 5619 5643 5653 5654 5652 5648 5640 5626 5618 5612
5562 5558 5554 5567 5578 5578 5580 5594 5598 5600 5607 5611 5616 5621 5622 5623 5622 5628 5628 5630 5632 5636 5636 5635 5633 5629 5623 5620 5618 5622 5626 5627 5622 5623 5628 5618 5647 5636 5636 5638 5634 5629 5621 5612 5604
5554 5552 5550 5560 5569 5585 5580 5585 5589 5597 5603 5608 5612 5615 5616 5617 5618 5622 5624 5623 5625 5628 5621 5629 5626 5637 5636 5636 5636 5622 5620 5618 5624 5622 5626 5631 5642 5640 5626 5627 5626 5620 5613 5605 5597
5554 5564 5571 5562 5563 5574 5584 5582 5585 5589 5594 5601 5600 5611 5615 5610 5611 5617 5620 5616 5616 5614 5617 5622 5621 5623 5627 5621 5619 5625 5624 5615 5613 5629 5617 5642 5636 5645 5634 5625 5623 5615 5605 5596 5588
5554 5560 5559 5564 5565 5566 5572 5577 5586 5590 5593 5597 5598 5608 5608 5612 5618 5614 5615 5614 5621 5607 5612 5606 5612 5606 5611 5606 5606 5605 5614 5622 5617 5624 5626 5621 5624 5636 5633 5622 5619 5604 5592 5584 5576
5545 5555 5572 5554 5562 5564 5575 5583 5581 5586 5590 5598 5599 5599 5595 5606 5614 5611 5612 5615 5617 5614 5608 5603 5602 5600 5605 5594 5596 5598 5622 5625 5625 5623 5622 5614 5631 5623 5612 5604 5603 5596 5584 5575 5564